Location: Chuathbaluk
(61.5726°N, 159.2454°W)
Time: 17:28:55
(UTC+00:00)

NOAA 15 - Pass Details

Date: 24 January 2021
Orbit: 798 x 812 km, 98.7° (Epoch: 05 March)

Event Time Altitude Azimuth Distance (km) Brightness Sun altitude
Rises 16:29:55 0° 23° (NNE) 3,345 8.0 -18.9°
Reaches altitude 10° 16:33:43 10° 50° (NE) 2,410 7.7 -18.5°
Maximum altitude 16:36:09 13° 78° (ENE) 2,195 7.9 -18.2°
Drops below altitude 10° 16:38:34 10° 105° (ESE) 2,405 8.3 -17.9°
Sets 16:42:20 0° 133° (SE) 3,332 8.7 -17.5°
